Location: Dürabuch
(48.2640°N, 11.2185°E)
Time: 08:09:02
(UTC+00:00)

NPP - Pass Details

Date: 23 May 2024
Orbit: 826 x 827 km, 98.7° (Epoch: 15 June)

Event Time Altitude Azimuth Distance (km) Brightness Sun altitude
Rises 00:59:20 0° 16° (NNE) 3,378 8.5 -17.0°
Reaches altitude 10° 01:01:43 10° 18° (NNE) 2,441 7.4 -16.8°
Maximum altitude 01:07:07 73° 103° (ESE) 868 3.8 -16.4°
Enters shadow 01:10:34 23° 185° (S) 1,697 4.7 -16.2°
